Moline, IL
on Saturday, May 4, 2013

Saturday
Previous Day Next Day
Daily Summary
 ActualAverageRecord
Temperature
Mean Temperature °F 58°F  
Max Temperature 69°F 69°F 93°F (1952)
Min Temperature 52°F 47°F 28°F (2005)
Degree Days
Heating Degree Days 4 8  
Month to date heating degree days 39 33  
Since 1 July heating degree days 6197 6056  
Cooling Degree Days 0 1  
Month to date cooling degree days 6 4  
Year to date cooling degree days 15 18  
Growing Degree Days8 (Base °F )  
Moisture
Dew Point 55°F   
Average Humidity 78    
Maximum Humidity 93    
Minimum Humidity 63    
Precipitation
Precipitation 0.78 in 0.13 in 2.13 in (1990)
Month to date precipitation 2.82 0.52  
Year to date precipitation 18.00 10.06  
Snow
Snow 0.00 in 0.00 in in ()
Month to date snowfall 0.0 0.0  
Since 1 July snowfall 34.5 31.6  
Snow Depth 0.00 in   
Wind
Wind Speed 8 mph   
Max Wind Speed 16 mph   
Max Gust Speed 20 mph   
Visibility 7 miles   
Events Fog , Rain   

Key: T is trace of precipitation, MM is missing value
Source: NWS Daily Summary
Time(CDT)TemperatureDew PointHumidity Pressure Visibility Wind DirectionWind SpeedGust SpeedPrecipitationEvents Conditions
12:52 AM 52.0°F 50.0°F 93% 29.89 in 3.0 miles ENE 16.1 mph - 0.04 in Rain Light Rain
1:52 AM 53.1°F 51.1°F 93% 29.87 in 4.0 miles ENE 12.7 mph - 0.03 in   Overcast
2:52 AM 53.1°F 51.1°F 93% 29.87 in 4.0 miles East 10.4 mph - N/A   Overcast
3:52 AM 54.0°F 52.0°F 93% 29.88 in 4.0 miles East 9.2 mph - 0.02 in Rain Light Rain
4:52 AM 55.0°F 53.1°F 93% 29.87 in 5.0 miles ENE 11.5 mph - 0.02 in Rain Light Rain
5:52 AM 55.0°F 54.0°F 96% 29.87 in 7.0 miles East 9.2 mph - 0.01 in   Mostly Cloudy
6:52 AM 55.9°F 54.0°F 93% 29.89 in 6.0 miles East 10.4 mph - N/A   Scattered Clouds
7:52 AM 57.0°F 54.0°F 89% 29.91 in 6.0 miles East 11.5 mph - N/A   Partly Cloudy
8:52 AM 57.9°F 54.0°F 87% 29.94 in 7.0 miles East 13.8 mph - N/A   Partly Cloudy
9:52 AM 60.1°F 55.0°F 83% 29.94 in 8.0 miles East 10.4 mph - N/A   Overcast
10:52 AM 64.0°F 55.9°F 75% 29.94 in 10.0 miles East 10.4 mph - N/A   Overcast
10:59 AM 62.6°F 55.4°F 77% 29.94 in 10.0 miles ENE 11.5 mph - N/A   Overcast
11:06 AM 64.4°F 57.2°F 77% 29.94 in 10.0 miles ENE 10.4 mph - N/A   Mostly Cloudy
11:17 AM 64.4°F 55.4°F 73% 29.94 in 10.0 miles ENE 13.8 mph - N/A   Mostly Cloudy
11:24 AM 64.4°F 55.4°F 73% 29.94 in 10.0 miles ENE 13.8 mph - N/A   Mostly Cloudy
11:52 AM 64.9°F 55.0°F 70% 29.94 in 10.0 miles East 13.8 mph - N/A   Mostly Cloudy
12:52 PM 66.0°F 55.0°F 68% 29.93 in 10.0 miles East 12.7 mph - N/A   Overcast
1:52 PM 68.0°F 57.0°F 68% 29.92 in 10.0 miles ESE 8.1 mph - N/A   Mostly Cloudy
2:52 PM 66.0°F 54.0°F 65% 29.92 in 10.0 miles East 9.2 mph - N/A   Overcast
3:52 PM 63.0°F 57.9°F 84% 29.92 in 10.0 miles SSW 6.9 mph - 0.03 in   Overcast
4:52 PM 62.1°F 57.0°F 84% 29.92 in 2.5 miles Variable 3.5 mph - 0.04 in Rain Heavy Rain
5:06 PM 60.8°F 57.2°F 88% 29.93 in 3.0 miles Calm Calm - 0.08 in Rain Heavy Rain
5:18 PM 60.8°F 57.2°F 88% 29.93 in 0.5 miles North 3.5 mph - 0.30 in Fog , Rain Heavy Rain
5:32 PM 59.0°F 57.2°F 94% 29.94 in 1.2 miles Calm Calm - 0.55 in Rain Heavy Rain
5:37 PM 59.0°F 57.2°F 94% 29.94 in 2.0 miles WSW 3.5 mph - 0.55 in Rain Light Rain
5:41 PM 60.8°F 57.2°F 88% 29.95 in 3.0 miles Calm Calm - 0.56 in Rain Light Rain
5:52 PM 60.1°F 57.0°F 90% 29.96 in 2.0 miles SE 11.5 mph 18.4 mph 0.57 in Rain Light Rain
5:55 PM 60.8°F 57.2°F 88% 29.95 in 1.8 miles SE 10.4 mph - 0.04 in Rain Heavy Rain
6:04 PM 60.8°F 57.2°F 88% 29.95 in 3.0 miles South 5.8 mph - 0.07 in Rain Light Rain
6:52 PM 60.1°F 55.9°F 86% 29.97 in 10.0 miles SSE 6.9 mph - 0.08 in   Overcast
7:52 PM 59.0°F 54.0°F 83% 29.99 in 10.0 miles SSE 3.5 mph - N/A   Overcast
8:52 PM 57.0°F 55.0°F 93% 30.01 in 10.0 miles Calm Calm - N/A   Overcast
9:52 PM 57.0°F 55.0°F 93% 30.03 in 10.0 miles Calm Calm - N/A   Overcast
10:52 PM 57.0°F 55.0°F 93% 30.03 in 10.0 miles Calm Calm - N/A   Overcast
11:52 PM 57.0°F 55.0°F 93% 30.04 in 10.0 miles Variable 4.6 mph - N/A   Overcast
Astronomy
Sunrise:05:55 AM (CDT) Moon Rise:02:57 AM (CDT)5/4
Sunset:08:03 PM (CDT) Moon Set:02:57 PM (CDT)5/4
Moon Phase
May. 04 May. 09 May. 18 May. 25 May. 31

Copyright © 2014 The Weather Underground, Inc.


Local events heading








  Today is Saturday, Aug. 23, the 235th day of 2014. There are 130 days left in the year.

1864 -- 150 years ago: Telegraph reports state that, about 6 o'clock on the evening of the 20th, Quantrill, with about 800 of his thieves and robbers, surrounded Lawrence, Kan., and burned it to the ground.
1889 -- 125 years ago: Newton Beer's production of "Lost in London," which had a successful run for three seasons, was presented at Harper's Theater.
1914 -- 100 years ago: The German army commanded by Fran Duke Albrecht of Wurtemburg defeated the French army at Neufchmtenu.
1939 -- 75 years ago: John Deere Harvester Works in East Moline is starting a four-story, $104,000 addition to the combine assembly building.
1964 -- 50 years ago: Short Hills Country Club held onto its lead yesterday despite a rally by host Davenport Country Club and claimed the team title in the Sunshine Cup golf series.
1989 -- 25 years ago: Quad-Citians can look forward to more excitement and fun at this year's Rock Island Labor Day parade at 9:30 a.m. Sept 4, say organizers. This years theme is "Celebrate Rock Island."






(More History)